Weather reports worldwide

Advertisment
Cap Cepet, France (7661): temperature & dewpoint: 10.01.2018 08:00:00 - 16.01.2018 08:00:00 (CET)Cap Cepet, France (7661): wind speed & gusts: 10.01.2018 08:00:00 - 16.01.2018 08:00:00 (CET)Cap Cepet, France (7661): wind direction: 10.01.2018 08:00:00 - 16.01.2018 08:00:00 (CET)Cap Cepet, France (7661): reduced air pressure: 10.01.2018 08:00:00 - 16.01.2018 08:00:00 (CET)Cap Cepet, France (7661): visibility: 10.01.2018 08:00:00 - 16.01.2018 08:00:00 (CET)Cap Cepet, France (7661): precipitation: 10.01.2018 08:00:00 - 16.01.2018 08:00:00 (CET)
Date & Time tt [°C] td [°C] ff [km/h] ff [kn] fx [km/h] fx [kn] dd ppp [hPa] vv [km] rr [mm]
16.01.2018 08:00:00 11,3 9,4 27 14 46 25 W 1015,4 - 0,0
16.01.2018 07:00:00 9,9 9,1 31 17 60 32 W 1015,5 - 0,0
16.01.2018 06:00:00 11,2 7,5 30 16 60 33 W 1015,9 - 0,0
16.01.2018 05:00:00 11,5 6,6 32 18 56 31 W 1016,0 - 0,0
16.01.2018 04:00:00 11,0 8,4 30 16 52 28 W 1016,5 15 0,0
16.01.2018 03:00:00 10,9 7,2 28 15 48 26 W 1017,7 - 0,0
16.01.2018 02:00:00 11,0 8,0 26 14 46 25 WSW 1018,5 - 0,0
16.01.2018 01:00:00 10,9 7,6 26 14 47 25 WSW 1019,1 - 0,0
16.01.2018 00:00:00 10,4 6,3 23 12 45 24 W 1020,0 - 0,0
15.01.2018 23:00:00 10,2 7,1 27 15 43 23 W 1020,3 - 0,0
15.01.2018 22:00:00 10,2 8,3 21 12 34 18 W 1020,5 - 0,0
15.01.2018 21:00:00 10,3 7,9 16 9 24 13 WSW 1020,6 - 0,0
15.01.2018 20:00:00 9,7 7,6 11 6 14 7 W 1020,8 - 0,0
15.01.2018 19:00:00 9,8 7,7 9 5 12 7 SW 1020,7 - 0,0
15.01.2018 18:00:00 9,6 7,2 8 4 11 6 S 1020,3 - 0,0
15.01.2018 17:00:00 11,0 7,3 3 1 14 7 SSE 1020,8 - 0,0
15.01.2018 16:00:00 11,9 8,0 6 3 16 9 ESE 1020,8 - 0,0
15.01.2018 15:00:00 12,1 7,2 10 6 23 13 E 1020,8 - 0,0
15.01.2018 14:00:00 12,4 7,5 10 6 24 13 ENE 1021,0 - 0,0
15.01.2018 13:00:00 10,6 6,9 18 10 26 14 NE 1022,0 - 0,0
15.01.2018 12:00:00 10,1 6,6 17 9 29 16 NE 1022,9 - 0,0
15.01.2018 11:00:00 9,9 6,8 20 11 31 17 NE 1023,1 - 0,0
15.01.2018 10:00:00 9,4 6,7 21 12 33 18 NE 1022,6 15 0,0
15.01.2018 09:00:00 8,0 5,8 25 13 36 19 NE 1021,9 - 0,0
15.01.2018 08:00:00 7,9 6,0 22 12 34 18 NE 1021,6 - 0,0
15.01.2018 07:00:00 8,0 5,8 24 13 35 19 NE 1021,2 20 0,0
15.01.2018 06:00:00 7,8 5,6 25 14 37 20 NE 1020,5 - 0,0
15.01.2018 05:00:00 8,0 5,6 26 14 36 20 NE 1020,5 - 0,0
15.01.2018 04:00:00 8,6 6,0 26 14 40 22 NE 1020,7 - 0,0
15.01.2018 03:00:00 8,8 6,2 27 14 37 20 NE 1020,9 - 0,0
15.01.2018 02:00:00 8,5 6,5 27 15 43 23 NE 1021,0 - 0,0
15.01.2018 01:00:00 8,0 6,3 31 17 46 25 NE 1021,0 - 0,0
15.01.2018 00:00:00 8,3 6,1 34 18 48 26 NE 1020,6 - 0,0
14.01.2018 23:00:00 8,0 6,5 34 18 49 26 NE 1020,4 - 0,0
14.01.2018 22:00:00 7,9 6,7 29 16 46 25 NE 1020,5 - 0,0
14.01.2018 21:00:00 7,6 6,8 31 17 46 25 NE 1020,0 - 0,0
14.01.2018 20:00:00 7,2 6,6 34 18 48 26 NE 1019,4 - 0,0
14.01.2018 19:00:00 7,2 6,6 31 17 52 28 NE 1019,0 20 0,0
14.01.2018 18:00:00 7,6 7,0 33 18 51 28 NE 1018,3 - 0,0
14.01.2018 17:00:00 8,2 7,6 33 18 46 25 NE 1017,9 - 0,0
14.01.2018 16:00:00 8,5 7,9 27 14 44 24 NE 1018,0 - 1,0
14.01.2018 15:00:00 8,8 8,0 28 15 54 29 ENE 1017,9 - 1,8
14.01.2018 14:00:00 9,1 7,5 34 18 60 32 ENE 1017,5 - 1,6
14.01.2018 13:00:00 10,6 6,7 34 19 60 32 ENE 1017,6 - 0,0
14.01.2018 12:00:00 11,3 7,4 28 15 42 23 NE 1017,9 - 0,0
14.01.2018 11:00:00 10,0 6,9 28 15 39 21 NE 1018,2 - 0,0
14.01.2018 10:00:00 9,2 6,3 25 13 41 22 NE 1017,9 15 0,0
14.01.2018 09:00:00 8,4 5,5 28 15 40 22 NE 1017,7 - 0,0
14.01.2018 08:00:00 7,9 4,8 27 15 41 22 NE 1017,5 - 0,0
14.01.2018 07:00:00 7,5 4,8 29 16 40 22 NE 1017,1 15 0,0
14.01.2018 06:00:00 6,6 4,9 26 14 37 20 NE 1017,1 - 0,0
14.01.2018 05:00:00 7,2 5,3 21 11 29 16 NE 1017,7 - 0,0
14.01.2018 04:00:00 7,5 5,6 19 10 29 16 NE 1018,0 15 0,0
14.01.2018 03:00:00 7,2 5,7 17 9 28 15 NE 1018,6 - 0,0
14.01.2018 02:00:00 7,3 6,1 19 10 27 14 NE 1018,7 - 0,0
14.01.2018 01:00:00 7,5 6,3 15 8 23 12 ENE 1019,3 - 0,0
14.01.2018 00:00:00 7,4 6,2 13 7 19 10 ENE 1019,9 - 0,0
13.01.2018 23:00:00 7,6 6,1 13 7 18 10 ENE 1020,0 - 0,0
13.01.2018 22:00:00 7,6 6,2 14 8 23 12 NE 1020,1 - 0,0
13.01.2018 21:00:00 8,1 6,2 14 8 20 11 ENE 1020,0 - 0,0
13.01.2018 20:00:00 9,1 5,6 12 7 21 11 NE 1020,3 - 0,0
13.01.2018 19:00:00 10,0 4,6 13 7 21 11 E 1020,3 - 0,0
13.01.2018 18:00:00 10,0 5,2 13 7 22 12 E 1019,9 - 0,0
13.01.2018 17:00:00 10,6 5,6 9 5 22 12 ESE 1020,0 - 0,0
13.01.2018 16:00:00 11,2 5,3 7 4 22 12 SE 1020,5 - 0,0
13.01.2018 15:00:00 12,9 6,5 11 6 22 12 SE 1020,4 - 0,0
13.01.2018 14:00:00 13,5 6,4 10 5 23 13 ESE 1020,6 - 0,0
13.01.2018 13:00:00 12,8 6,4 10 6 24 13 ESE 1021,2 20 0,0
13.01.2018 12:00:00 11,5 6,8 12 6 19 10 NE 1021,8 - 0,0
13.01.2018 11:00:00 9,9 5,7 13 7 18 10 NE 1022,0 - 0,0
13.01.2018 10:00:00 8,0 5,1 12 7 19 10 NE 1021,7 20 0,0
13.01.2018 09:00:00 5,9 4,4 13 7 21 11 ENE 1021,3 - 0,0
13.01.2018 08:00:00 5,9 3,7 11 6 19 11 E 1021,0 - 0,0
13.01.2018 07:00:00 5,2 3,0 13 7 24 13 ENE 1020,8 15 0,0
13.01.2018 06:00:00 5,5 2,8 16 9 24 13 ENE 1020,7 - 0,0
13.01.2018 05:00:00 6,1 3,3 17 9 29 16 ENE 1020,5 - 0,0
13.01.2018 04:00:00 6,1 2,0 17 9 25 14 ENE 1020,9 - 0,0
13.01.2018 03:00:00 8,9 4,9 4 2 9 5 E 1020,7 - 0,0
13.01.2018 02:00:00 9,0 2,1 5 3 10 5 ENE 1020,7 - 0,0
13.01.2018 01:00:00 9,0 3,0 5 3 7 4 ENE 1021,0 - 0,0
13.01.2018 00:00:00 10,0 5,2 3 2 9 5 S 1021,1 - 0,0
12.01.2018 23:00:00 10,1 3,1 5 3 10 6 ENE 1021,0 - 0,0
12.01.2018 22:00:00 10,0 3,3 7 4 10 6 ENE 1020,7 - 0,0
12.01.2018 21:00:00 10,4 4,3 4 2 7 4 E 1020,3 - 0,0
12.01.2018 20:00:00 11,1 3,6 4 2 8 4 S 1019,7 - 0,0
12.01.2018 19:00:00 11,1 2,9 6 3 14 8 W 1019,3 - 0,0
12.01.2018 18:00:00 11,0 3,3 12 6 17 9 W 1018,8 - 0,0
12.01.2018 17:00:00 11,5 3,0 11 6 16 9 W 1018,5 - 0,0
12.01.2018 16:00:00 12,2 2,3 9 5 17 9 W 1018,1 30 0,0
12.01.2018 15:00:00 12,5 3,4 12 6 18 10 W 1017,7 - 0,0
12.01.2018 14:00:00 12,5 4,7 7 4 14 8 W 1017,4 - 0,0
12.01.2018 13:00:00 12,4 6,2 5 3 9 5 SSW 1017,7 - 0,0
12.01.2018 12:00:00 12,4 3,1 4 2 11 6 WNW 1017,9 - 0,0
12.01.2018 11:00:00 10,4 2,2 9 5 10 6 W 1018,1 - 0,0
12.01.2018 10:00:00 7,8 2,7 11 6 17 9 ENE 1017,7 30 0,0
12.01.2018 09:00:00 6,3 2,2 15 8 21 11 ENE 1017,0 - 0,0
12.01.2018 08:00:00 7,0 3,1 4 2 7 4 NNE 1016,5 - 0,0
12.01.2018 07:00:00 8,1 2,5 4 2 9 5 NW 1015,6 20 0,0
12.01.2018 06:00:00 7,9 2,1 8 4 15 8 NW 1015,0 - 0,0
12.01.2018 05:00:00 6,8 3,0 10 5 12 7 NW 1015,0 - 0,0
12.01.2018 04:00:00 7,5 2,6 4 2 13 7 NNE 1014,9 - 0,0
12.01.2018 03:00:00 8,4 2,0 6 3 11 6 ENE 1014,5 - 0,0
12.01.2018 02:00:00 8,7 3,7 3 1 10 5 ESE 1014,0 - 0,0
12.01.2018 01:00:00 9,0 2,1 4 2 6 4 ESE 1013,6 - 0,0
12.01.2018 00:00:00 8,1 2,5 4 2 17 9 NNE 1013,8 - 0,0
11.01.2018 23:00:00 8,9 2,7 13 7 16 8 W 1013,4 - 0,0
11.01.2018 22:00:00 8,0 4,2 10 5 12 6 W 1013,3 - 0,0
11.01.2018 21:00:00 8,5 4,9 8 4 14 8 W 1013,0 - 0,0
11.01.2018 20:00:00 9,1 4,9 10 5 12 7 W 1012,6 - 0,0
11.01.2018 19:00:00 8,9 6,3 7 4 13 7 WNW 1012,2 20 0,0
11.01.2018 18:00:00 9,8 6,1 5 3 12 6 NE 1011,7 - 0,0
11.01.2018 17:00:00 10,7 5,9 4 2 8 4 NE 1011,3 - 0,0
11.01.2018 16:00:00 11,5 6,2 3 2 9 5 SSE 1010,8 30 0,0
11.01.2018 15:00:00 12,7 6,3 4 2 15 8 SW 1010,5 - 0,0
11.01.2018 14:00:00 14,1 6,4 6 3 15 8 SSW 1010,1 - 0,0
11.01.2018 13:00:00 13,0 6,1 5 3 12 7 SSW 1010,5 30 0,0
11.01.2018 12:00:00 11,4 5,9 4 2 10 5 W 1011,1 - 0,0
11.01.2018 11:00:00 10,2 6,9 8 5 24 13 NE 1011,6 - 0,0
11.01.2018 10:00:00 8,1 6,1 9 5 17 9 ENE 1011,2 - 0,0
11.01.2018 09:00:00 8,1 6,7 5 3 13 7 N 1010,9 - 0,0
11.01.2018 08:00:00 7,4 6,2 6 3 15 8 NNE 1010,6 - 0,0
11.01.2018 07:00:00 7,8 6,4 11 6 21 11 E 1010,3 - 0,0
11.01.2018 06:00:00 7,9 6,7 6 4 14 8 ENE 1010,3 - 0,0
11.01.2018 05:00:00 8,3 6,9 6 3 9 5 NE 1010,5 - 0,0
11.01.2018 04:00:00 7,9 6,7 6 3 19 11 SSW 1010,9 - 0,0
11.01.2018 03:00:00 7,6 6,5 13 7 18 10 ENE 1011,2 - 0,0
11.01.2018 02:00:00 7,1 5,9 10 5 13 7 ENE 1011,6 - 0,0
11.01.2018 01:00:00 8,8 7,2 5 3 13 7 NNE 1012,0 - 0,0
11.01.2018 00:00:00 7,5 6,6 11 6 13 7 ENE 1012,4 - 0,0
10.01.2018 23:00:00 7,8 7,0 7 4 18 10 NE 1012,3 - 0,0
10.01.2018 22:00:00 7,9 7,1 9 5 22 12 NE 1012,5 - 0,0
10.01.2018 21:00:00 8,4 7,5 16 8 23 12 NE 1012,3 - 0,0
10.01.2018 20:00:00 9,1 8,0 10 5 22 12 NE 1013,0 - 0,0
10.01.2018 19:00:00 9,2 8,1 15 8 23 13 NE 1012,7 15 0,0
10.01.2018 18:00:00 9,6 8,0 16 9 26 14 NE 1012,5 - 0,0
10.01.2018 17:00:00 11,1 8,5 15 8 22 12 NE 1012,4 - 0,0
10.01.2018 16:00:00 12,4 8,5 13 7 21 11 NE 1012,3 25 0,0
10.01.2018 15:00:00 13,0 9,1 12 7 23 12 NE 1012,3 - 0,0
10.01.2018 14:00:00 12,4 9,0 16 8 26 14 NE 1012,6 - 0,0
10.01.2018 13:00:00 12,7 9,3 16 9 25 13 NE 1013,3 - 0,0
10.01.2018 12:00:00 12,7 8,6 3 2 21 12 SE 1014,1 - 0,0
10.01.2018 11:00:00 12,1 8,9 11 6 22 12 SSE 1014,5 - 0,0
10.01.2018 10:00:00 12,3 8,4 9 5 23 12 SSE 1014,7 - 0,0
10.01.2018 09:00:00 12,0 8,3 11 6 30 16 S 1014,7 - 0,0
10.01.2018 08:00:00 11,9 8,0 15 8 34 18 SSE 1014,7 - 0,0

tt = temperature
td = dewpoint
ff = wind speed
fx = gusts
dd = wind direction
ppp = reduced air pressure
vv = visibility
rr = precipitation

Next stations